Hallock, MN

5:34 PM CST on February 27, 2017 (GMT -0600)
Hallock Municipal

Weather History for KHCO - November, 2013

Change the Weather History Date:

Thursday, November 7, 2013

  Actual Average Record
Temperature  
Mean Temperature 22 °F -  
Max Temperature 35 °F 38 °F 69 °F (1999)
Min Temperature 8 °F 19 °F -7 °F (1936)
Degree Days  
Heating Degree Days 44    
Moisture  
Dew Point 13 °F    
Average Humidity 68    
Maximum Humidity 86    
Minimum Humidity 33    
Precipitation  
Precipitation 0.00 in - - ()
Sea Level Pressure  
Sea Level Pressure 30.15 in    
Wind  
Wind Speed 2 mph (SSW)    
Max Wind Speed 9 mph    
Max Gust Speed -    
Visibility 10 miles    
Events      
Averages and records for this station are not official NWS values.
T = Trace of Precipitation, MM = Missing Value Source: NWS Daily Summary

Daily Weather History Graph

Daily Weather History Graph

Search for Another Location

Airport or City:

Trip Planner

Search our weather history database for the weather conditions in past years. The results will help you decide how hot, cold, wet, or windy it might be!

Date:

Astronomy

Nov. 07, 2013 Rise Set
Actual Time 7:24 AM CST 4:57 PM CST
Civil Twilight 6:50 AM CST 5:31 PM CST
Nautical Twilight 6:13 AM CST 6:09 PM CST
Astronomical Twilight 5:36 AM CST 6:45 PM CST
Moon 11:38 AM CST (11/7) 9:07 PM CST (11/7)
Length of Visible Light 10h 40m
Length of Day
9h 33m
Waxing Crescent, 23% of the Moon is Illuminated
Nov 7
Waxing Crescent
Nov 9
First Quarter
Nov 17
Full
Nov 25
Last Quarter
Dec 2
New

Hourly Weather History & Observations

Time (CST) Temp. Windchill Dew Point Humidity Pressure Visibility Wind Dir Wind Speed Gust Speed Precip Events Conditions
12:13 AM 19.4 °F - 14.0 °F 80% 30.16 in 10.0 mi Calm Calm - N/A   Scattered Clouds
12:33 AM 17.6 °F - 12.2 °F 79% 30.17 in 10.0 mi Calm Calm - N/A   Mostly Cloudy
12:53 AM 21.2 °F 16.4 °F 15.8 °F 80% 30.17 in 10.0 mi West 3.5 mph - N/A   Mostly Cloudy
1:13 AM 19.4 °F - 12.2 °F 74% 30.17 in 10.0 mi Calm Calm - N/A   Scattered Clouds
1:33 AM 17.6 °F 12.3 °F 12.2 °F 79% 30.17 in 10.0 mi West 3.5 mph - N/A   Scattered Clouds
1:53 AM 19.4 °F - 14.0 °F 80% 30.16 in 10.0 mi Calm Calm - N/A   Mostly Cloudy
2:13 AM 19.4 °F - 12.2 °F 74% 30.16 in 10.0 mi Calm Calm - N/A   Mostly Cloudy
2:33 AM 17.6 °F - 10.4 °F 73% 30.17 in 10.0 mi Calm Calm - N/A   Scattered Clouds
2:53 AM 17.6 °F - 12.2 °F 79% 30.17 in 10.0 mi Calm Calm - N/A   Scattered Clouds
3:13 AM 17.6 °F - 12.2 °F 79% 30.17 in 10.0 mi Calm Calm - N/A   Mostly Cloudy
3:33 AM 19.4 °F - 14.0 °F 80% 30.17 in 10.0 mi Calm Calm - N/A   Mostly Cloudy
3:53 AM 17.6 °F 12.3 °F 12.2 °F 79% 30.17 in 10.0 mi West 3.5 mph - N/A   Mostly Cloudy
4:13 AM 17.6 °F 12.3 °F 12.2 °F 79% 30.17 in 10.0 mi West 3.5 mph - N/A   Scattered Clouds
4:33 AM 17.6 °F 10.7 °F 12.2 °F 79% 30.17 in 10.0 mi WNW 4.6 mph - N/A   Clear
4:53 AM 17.6 °F 10.7 °F 10.4 °F 73% 30.18 in 10.0 mi NW 4.6 mph - N/A   Clear
5:13 AM 15.8 °F - 10.4 °F 79% 30.18 in 10.0 mi Calm Calm - N/A   Clear
5:33 AM 15.8 °F - 10.4 °F 79% 30.18 in 10.0 mi Calm Calm - N/A   Clear
5:53 AM 14.0 °F - 10.4 °F 86% 30.18 in 10.0 mi Calm Calm - N/A   Clear
6:13 AM 12.2 °F - 8.6 °F 85% 30.18 in 10.0 mi Calm Calm - N/A   Clear
6:33 AM 12.2 °F - 8.6 °F 85% 30.17 in 10.0 mi Calm Calm - N/A   Clear
6:53 AM 10.4 °F - 6.8 °F 85% 30.17 in 10.0 mi Calm Calm - N/A   Clear
7:13 AM 8.6 °F 2.0 °F 3.2 °F 79% 30.18 in 10.0 mi SW 3.5 mph - N/A   Clear
7:33 AM 8.6 °F 2.0 °F 5.0 °F 85% 30.18 in 10.0 mi SSW 3.5 mph - N/A   Clear
7:53 AM 10.4 °F 4.0 °F 5.0 °F 79% 30.18 in 10.0 mi SSW 3.5 mph - N/A   Clear
8:13 AM 12.2 °F - 6.8 °F 79% 30.18 in 10.0 mi Calm Calm - N/A   Clear
8:33 AM 15.8 °F - 10.4 °F 79% 30.18 in 10.0 mi Calm Calm - N/A   Scattered Clouds
8:53 AM 17.6 °F 10.7 °F 12.2 °F 79% 30.19 in 10.0 mi SW 4.6 mph - N/A   Mostly Cloudy
9:13 AM 21.2 °F 13.6 °F 14.0 °F 74% 30.19 in 10.0 mi WSW 5.8 mph - N/A   Scattered Clouds
9:33 AM 23.0 °F 14.7 °F 15.8 °F 74% 30.19 in 10.0 mi WSW 6.9 mph - N/A   Clear
9:53 AM 23.0 °F 17.0 °F 15.8 °F 74% 30.19 in 10.0 mi WSW 4.6 mph - N/A   Clear
10:13 AM 24.8 °F 20.5 °F 14.0 °F 64% 30.19 in 10.0 mi West 3.5 mph - N/A   Mostly Cloudy
10:33 AM 24.8 °F - 14.0 °F 64% 30.19 in 10.0 mi Calm Calm - N/A   Mostly Cloudy
10:53 AM 26.6 °F - 14.0 °F 59% 30.19 in 10.0 mi Calm Calm - N/A   Clear
11:13 AM 26.6 °F - 15.8 °F 64% 30.19 in 10.0 mi Calm Calm - N/A   Scattered Clouds
11:33 AM 28.4 °F - 15.8 °F 59% 30.19 in 10.0 mi Calm Calm - N/A   Mostly Cloudy
11:53 AM 28.4 °F - 15.8 °F 59% 30.19 in 10.0 mi Calm Calm - N/A   Overcast
12:13 PM 30.2 °F - 14.0 °F 51% 30.18 in 10.0 mi Calm Calm - N/A   Overcast
12:33 PM 30.2 °F - 12.2 °F 47% 30.17 in 10.0 mi Calm Calm - N/A   Mostly Cloudy
12:53 PM 33.8 °F - 12.2 °F 41% 30.16 in 10.0 mi Calm Calm - N/A   Scattered Clouds
1:13 PM 32.0 °F - 12.2 °F 44% 30.16 in 10.0 mi Calm Calm - N/A   Clear
1:33 PM 33.8 °F - 10.4 °F 38% 30.16 in 10.0 mi Calm Calm - N/A   Clear
1:53 PM 33.8 °F 30.8 °F 10.4 °F 38% 30.16 in 10.0 mi WSW 3.5 mph - N/A   Clear
2:13 PM 35.6 °F 30.7 °F 10.4 °F 35% 30.16 in 10.0 mi WSW 5.8 mph - N/A   Clear
2:33 PM 35.6 °F - 8.6 °F 33% 30.15 in 10.0 mi Calm Calm - N/A   Clear
2:53 PM 35.6 °F - 8.6 °F 33% 30.14 in 10.0 mi Calm Calm - N/A   Clear
3:13 PM 35.6 °F - 8.6 °F 33% 30.14 in 10.0 mi Calm Calm - N/A   Clear
3:33 PM 35.6 °F 32.8 °F 10.4 °F 35% 30.14 in 10.0 mi WSW 3.5 mph - N/A   Clear
3:48 PM 35.6 °F - 12.2 °F 38% 30.13 in 10.0 mi Calm Calm - N/A   Clear
4:13 PM 33.8 °F 30.8 °F 12.2 °F 41% 30.13 in 10.0 mi South 3.5 mph - N/A   Clear
4:33 PM 33.8 °F 30.8 °F 12.2 °F 41% 30.14 in 10.0 mi SSW 3.5 mph - N/A   Clear
4:53 PM 32.0 °F 28.7 °F 12.2 °F 44% 30.13 in 10.0 mi South 3.5 mph - N/A   Clear
5:13 PM 30.2 °F 26.7 °F 14.0 °F 51% 30.13 in 10.0 mi SSE 3.5 mph - N/A   Clear
5:33 PM 28.4 °F 21.2 °F 15.8 °F 59% 30.12 in 10.0 mi SSE 6.9 mph - N/A   Clear
5:53 PM 26.6 °F 17.5 °F 15.8 °F 64% 30.12 in 10.0 mi SSE 9.2 mph - N/A   Clear
6:13 PM 24.8 °F 15.3 °F 12.2 °F 59% 30.12 in 10.0 mi SSE 9.2 mph - N/A   Clear
6:33 PM 24.8 °F 15.3 °F 15.8 °F 69% 30.12 in 10.0 mi SSE 9.2 mph - N/A   Clear
6:53 PM 24.8 °F 15.3 °F 14.0 °F 64% 30.11 in 10.0 mi SSE 9.2 mph - N/A   Clear
7:13 PM 23.0 °F 14.7 °F 14.0 °F 68% 30.11 in 10.0 mi SSE 6.9 mph - N/A   Clear
7:33 PM 21.2 °F 12.6 °F 14.0 °F 74% 30.10 in 10.0 mi South 6.9 mph - N/A   Clear
7:53 PM 21.2 °F 13.6 °F 15.8 °F 80% 30.10 in 10.0 mi South 5.8 mph - N/A   Clear
8:13 PM 21.2 °F 11.7 °F 15.8 °F 80% 30.10 in 10.0 mi South 8.1 mph - N/A   Clear
8:33 PM 21.2 °F 12.6 °F 15.8 °F 80% 30.09 in 10.0 mi South 6.9 mph - N/A   Clear
8:53 PM 21.2 °F 12.6 °F 17.6 °F 86% 30.09 in 10.0 mi South 6.9 mph - N/A   Clear
9:13 PM 21.2 °F 11.7 °F 17.6 °F 86% 30.08 in 10.0 mi South 8.1 mph - N/A   Clear
9:33 PM 21.2 °F 12.6 °F 17.6 °F 86% 30.09 in 10.0 mi South 6.9 mph - N/A   Clear
9:52 PM 21.2 °F 13.6 °F 15.8 °F 80% 30.09 in 10.0 mi South 5.8 mph - N/A   Clear
10:13 PM 21.2 °F 12.6 °F 17.6 °F 86% 30.08 in 10.0 mi South 6.9 mph - N/A   Clear
10:33 PM 19.4 °F 9.5 °F 15.8 °F 86% 30.08 in 10.0 mi South 8.1 mph - N/A   Clear
10:53 PM 19.4 °F 9.5 °F 15.8 °F 86% 30.08 in 10.0 mi South 8.1 mph - N/A   Clear
11:13 PM 19.4 °F 9.5 °F 15.8 °F 86% 30.07 in 10.0 mi SSE 8.1 mph - N/A   Clear
11:33 PM 19.4 °F 9.5 °F 15.8 °F 86% 30.06 in 10.0 mi SSE 8.1 mph - N/A   Clear
11:53 PM 19.4 °F 9.5 °F 15.8 °F 86% 30.06 in 10.0 mi SSE 8.1 mph - N/A   Clear